Simultaneous Nadir Overpasses (SNOs) Predictions

Prediction of SNOs between NOAA-19 and TERRA Satellite Orbit:

Table of predicted SNOs for the next 14.0 days since TLE Epoch: 7/14/2017
Index Date (NOAA-19) Time (NOAA-19) Lat,Lon (NOAA-19) SZA (NOAA-19 ) Date (TERRA) Time (TERRA) Lat,Lon (TERRA) SZA (TERRA ) Distance(km) Time Diff (sec)
1 07/16/2017 13:06:12 75.68, -4.93 54.59 07/16/2017 13:06:36 75.69, -4.83 54.60 2.87 24
2 07/16/2017 13:57:05 -75.60, 162.63 125.48 07/16/2017 13:56:05 -75.62, 162.60 125.48 2.49 60
3 07/18/2017 18:39:54 -75.68, 91.70 125.03 07/18/2017 18:40:23 -75.66, 91.65 125.05 3.03 29
4 07/18/2017 19:30:59 75.60,-100.80 54.92 07/18/2017 19:29:49 75.64,-100.78 54.93 3.64 70
5 07/21/2017 00:13:48 75.69,-171.73 55.40 07/21/2017 00:14:07 75.67,-171.75 55.38 1.91 19
6 07/21/2017 01:04:41 -75.61, -4.19 124.66 07/21/2017 01:03:36 -75.61, -4.31 124.69 3.19 65
7 07/23/2017 05:47:30 -75.71, -75.14 124.15 07/23/2017 05:47:53 -75.69, -75.14 124.16 1.41 23
8 07/23/2017 06:38:33 75.53, 92.68 55.72 07/23/2017 06:37:20 75.62, 92.28 55.77 14.43 73
9 07/25/2017 11:21:24 75.72, 21.41 56.34 07/25/2017 11:21:37 75.70, 21.44 56.32 2.59 13
10 07/25/2017 12:12:17 -75.64,-171.05 123.72 07/25/2017 12:11:06 -75.63,-171.11 123.74 1.75 71
11 07/27/2017 16:55:06 -75.74, 117.98 123.14 07/27/2017 16:55:23 -75.71, 118.04 123.16 3.17 17




NCC Satellite Simultaneous Nadir Overpasses (SNOs) Prediction Service
